www.pogodaiklimat.ru

Погода и климат >> Архив погоды >> Россия >> Тамбовская область >> Жердевка


ПОГОДА в Жердевке

  • Прогноз погоды в Жердевке
  • Монитор погоды в Жердевке

АРХИВ ПОГОДЫ в Жердевке

Время (UTC), дата Ветер
(напр.,м/с)
 
Видим.   Явления Облачность Т
(С)
Тd
(С)
f
(%)
Тe
(С)
Тes
(С)
Комфортность P
(гПа)
Po
(гПа)
Тmin
(С)
Tmax
(С)
R
(мм)
R24
(мм)
S
(см)
21 8.09 ЮВ 1 20 км ясно +16.7 +6.8 52 +18 +18 1027.7 1011.0
00 9.09 штиль 0 20 км ясно +14.4 +8.0 65 +14 +14 1028.1 1010.3
03 9.09 Ю 2 10 км 5/3 1000 м
[Cu med, cong Ac trans]
+14.3 +6.7 60 +14 +14 1028.2 1010.4 +12.4
06 9.09 Ю 3 20 км 8/0
[Ac trans]
+18.6 +7.1 47 +19 +21 1028.2 1010.6
09 9.09 ЮВ 3 20 км 5/0
[Ac und]
+25.2 +5.8 29 +25 +30 комфорт 1027.0 1009.9
12 9.09 ЮВ 1 50 км 3/0
[Ci fib]
+26.1 +5.1 26 +25 +32 комфорт 1026.0 1009.0
15 9.09 ЮВ 1 50 км 3/0
[Ac lent]
+24.5 +5.8 30 +24 +25 комфорт 1025.7 1008.6 +26.7
18 9.09 Ю 2 20 км ясно +18.6 +4.6 40 +19 +19 1026.7 1009.2
21 9.09 Ю 2 20 км 3/0
[Ac trans]
+16.1 +4.3 45 +16 +16 1027.5 1009.8
00 10.09 В 2 20 км ясно +12.5 +4.6 59 +12 +12 1028.3 1010.4
03 10.09 В 1 10 км 3/0
[Ac trans]
+9.8 +4.5 70 +10 +10 1029.2 1011.1 +9.8
06 10.09 Ю 2 10 км ясно +18.4 +5.0 41 +19 +24 1029.3 1011.7 +9.7
09 10.09 ЮВ 2 20 км ясно +24.1 +2.5 24 +23 +33 комфорт 1028.6 1011.4
12 10.09 В 4 20 км ясно +25.0 +2.1 22 +24 +28 комфорт 1028.2 1011.0
15 10.09 ЮВ 3 20 км 3/3 1000 м
[Cu med, cong]
+22.8 +2.3 26 +22 +22 комфорт 1028.0 1010.7 +25.4
18 10.09 В 2 20 км ясно +18.1 +3.6 38 +19 +19 1029.0 1011.4
21 10.09 С 1 20 км ясно +13.7 +4.3 53 +14 +14 1030.0 1012.2
00 11.09 С 1 10 км ясно +11.3 +4.1 61 +11 +11 1031.0 1013.1
03 11.09 С 1 10 км 3/0
[Ac trans]
+9.6 +4.0 68 +9 +9 1032.0 1013.9 +9.5
06 11.09 В 1 10 км ясно +18.1 +7.1 49 +19 +25 1032.6 1014.9 +9.3
09 11.09 В 2 20 км 4/4 1000 м
[Cu hum]
+25.0 +6.2 30 +25 +31 комфорт 1031.6 1014.5
12 11.09 В 1 50 км 6/6 600 м
[Cu med, cong]
+26.5 +5.3 26 +26 +28 жарко 1030.8 1013.7
15 11.09 ЮВ 1 50 км 3/3 600 м
[Cu med, cong]
+24.4 +6.7 32 +24 +25 комфорт 1030.2 1013.0 +26.7
18 11.09 штиль 0 20 км ясно +18.4 +7.1 48 +19 +19 1030.9 1013.3
21 11.09 штиль 0 20 км ясно +14.3 +7.1 62 +14 +14 1031.1 1013.3
00 12.09 С 1 20 км ясно +11.8 +6.5 70 +12 +12 1031.5 1013.6
03 12.09 С 1 10 км ясно +10.0 +6.4 78 +10 +10 1031.8 1013.7 +9.8
06 12.09 Ю 2 20 км ясно +16.3 +7.3 55 +16 +21 1031.5 1013.8
09 12.09 ЮВ 3 50 км 3/1 1000 м
[Cu hum Ci fib]
+24.6 +5.6 29 +24 +31 комфорт 1030.1 1012.9
12 12.09 В 2 50 км 3/3 1000 м
[Cu med, cong]
+25.5 +4.1 25 +25 +28 комфорт 1028.6 1011.5
15 12.09 ЮВ 2 50 км ясно +24.2 +3.6 26 +24 +24 комфорт 1027.8 1010.6 +26.0
18 12.09 Ю 2 20 км ясно +18.1 +3.6 38 +19 +19 1028.3 1010.7
21 12.09 штиль 0 20 км ясно +14.2 +4.0 50 +14 +14 1028.0 1010.2
00 13.09 Ю 1 20 км ясно +10.7 +5.9 72 +11 +11 1027.8 1009.7
03 13.09 Ю 1 10 км ясно +8.3 +4.1 75 +8 +8 1027.4 1009.3 +8.3
06 13.09 Ю 1 10 км ясно +18.4 +5.0 41 +20 +25 1026.8 1009.3 +7.6
09 13.09 Ю 2 20 км 4/0
[Ci fib]
+24.9 +0.6 20 +23 +32 комфорт 1025.4 1008.3
12 13.09 З 2 50 км 3/0
[Ci fib]
+26.3 +0.2 18 +24 +29 комфорт 1023.1 1006.1
15 13.09 ЮЗ 1 50 км ясно +24.8 +0.2 20 +23 +23 комфорт 1021.5 1004.5 +26.6
18 13.09 ЮЗ 3 20 км ясно +19.7 0.0 27 +20 +20 1021.3 1004.0
21 13.09 Ю 2 20 км ясно +14.9 +0.6 38 +15 +15 1020.3 1002.7
00 14.09 Ю 3 20 км 8/0
[Ac trans]
+14.2 +1.5 42 +14 +14 1019.2 1001.6
03 14.09 Ю 4 10 км 8/0
[Ac trans]
+15.4 +1.5 39 +15 +15 1017.7 1000.2 +12.9
06 14.09 ЮЗ 3 10 км 8/0
[Ac trans]
+19.8 +2.3 31 +20 +22 1016.3 999.1
09 14.09 З 4 20 км 6/0
[Ac trans]
+24.3 +3.2 25 +24 +27 комфорт 1015.1 998.1
12 14.09 З 5 20 км 8/4 600 м
[Cb cap Ac trans]
+22.9 +5.9 33 +23 +24 комфорт 1014.6 997.5
15 14.09 СЗ 7-12
{13}
10 км в посл. час ливневой дождь 10/10 660 м
[Cb cap]
+14.3 +10.0 75 +12 +12 1016.1 998.5 +24.8 0.0
18 14.09 З 2
{12}
10 км в посл. час ливневой дождь 10/10 630 м
[Cb cap]
+13.1 +12.2 94 +12 +12 1017.1 999.5
21 14.09 СЗ 3 10 км 9/9 600 м
[Cb cap]
+12.1 +8.5 79 +11 +11 1017.7 999.9
00 15.09 З 4 10 км 4/0
[Ac lent]
+9.2 +5.9 80 +6 +6 1018.2 1000.3
03 15.09 З 3 10 км 3/0
[Ac lent]
+6.2 +3.6 83 +3 +3 1018.8 1000.6 +6.2 2
06 15.09 З 2 20 км 6/0
[Ac trans Ci fib]
+10.6 +5.3 70 +9 +13 1019.5 1001.6
09 15.09 З 5 50 км 8/5 600 м
[Cb cap Ac trans]
+15.4 +4.3 47 +14 +16 1018.5 1001.0
12 15.09 СЗ 7-12
{13}
50 км 8/6 600 м
[Cb cap Ci fib]
+18.0 +2.5 35 +17 +18 1017.2 999.8
15 15.09 З 5
{13}
50 км 5/5 600 м
[Cb cap]
+14.7 -0.7 35 +13 +13 1016.8 999.2 +18.0
18 15.09 ЮЗ 2 20 км 8/0
[Ac trans]
+10.3 +0.2 50 +9 +9 1016.8 999.0

 

Местоположение метеостанции Жердевка (Тамбовская область, Россия): широта 51.83 долгота 41.48 высота над уровнем моря 147 м.

В архиве по умолчанию представлена погода в Жердевке за последнюю неделю. Архивные данные за месяц целиком и за предыдущие месяцы, начиная с января 2011 года, Вы можете получить, выбрав интересующий диапазон дат из раскрывающегося списка и нажав кнопку "Ввод!".


*Определитесь, кто Вы:
робот инопланетянин человек

Внимание! Время в таблицах - всемирное. Для получения местного времени необходимо прибавить поправку, которая равна 3 ч.

Смотрите также архив погоды в соседних городах и на ближайших метеорологических станциях:

Погода в Обловке (Тамбовская область, Россия) (56 км)
Погода в Совхозе им. Ленина (Тамбовская область, Россия) (59 км)
Погода в Борисоглебске (Воронежская область, Россия) (66 км)
Погода в Анне (Воронежская область, Россия) (83 км)
Погода в Каменной Степи (Воронежская область, Россия) (102 км)
Погода в Тамбове (Тамбовская область, Россия) (108 км)
Погода в Балашове (Саратовская область, Россия) (119 км)
Погода в Урюпинске (Волгоградская область, Россия) (120 км)
Погода в Кирсанове (Тамбовская область, Россия) (126 км)
Погода в Мичуринске (Тамбовская область, Россия) (135 км)

Пояснения к столбцам:

Ветер - указаны скорость ветра в м/с - средняя за 10 мин, порывы в срок и между сроками (в фигурных скобках) и направление, откуда дует ветер: С - северный, СВ - северо-восточный, В - восточный, ЮВ - юго-восточный, Ю - южный, ЮЗ - юго-западный, З - западный, СЗ - северо-западный.
Видимость - горизонтальная дальность видимости в метрах или километрах. При видимости от 1 до 10 км при отсутствии осадков обычно наблюдается дымка, при ухудшении видимости до 1 км и менее - туман. В сухую погоду видимость может ухудшаться дымом, пылью или мглою.
Явления - указаны атмосферные явления, наблюдавшиеся в срок или в последний час перед сроком; фигурными скобками обозначены явления, наблюдавшиеся между сроками (за 1-3 часа до срока); квадратными скобками обозначены град или гололедные отложения с указанием их диаметра в мм.
Облачность - указаны через наклонную черту общая и нижняя облачность в баллах и высота нижней границы облаков в метрах; квадратными скобками обозначены формы облаков: Ci - перистые, Cs - перисто-слоистые, Cc - перисто-кучевые, Ac - высококучевые, As - высокослоистые, Sc - слоисто-кучевые, Ns - слоисто-дождевые, Cu - кучевые, Cb - кучево-дождевые. Подробнее классификацию облаков см. в Атласе облаков (PDF).
T - Температура воздуха - температура, измеренная на высоте 2 м над землей.
Td - Температура точки росы - температура, при понижении до которой содержащийся в воздухе водяной пар достигнет насыщения.
f - Относительная влажность воздуха - влажноcть воздуха, измеренная на высоте 2 м над землей.
Te - Эффективная температура - температура, которую ощущает одетый по сезону человек в тени. Характеристика душности погоды. При расчете учитывается влияние влажности воздуха и скорости ветра на теплоощущения человека.
Tes - Эффективная температура на солнце - температура, которую ощущает человек, с поправкой на солнечный нагрев. Характеристика знойности погоды. Зависит от высоты солнца над горизонтом, облачности и скорости ветра. Ночью, в пасмурную погоду, а также при ветре 12 м/с и более поправка равна нулю.
P - Атмосферное давление - приведенное к уровню моря атмосферное давление.
Po - Атмосферное давление - измеренное на уровне метеостанции атмосферное давление.
Tmin - Минимальная температура - минимум температуры воздуха на высоте 2 м над землей.
Tmax - Максимальная температура - максимум температуры воздуха на высоте 2 м над землей.
R - Количество осадков - Количество выпавших осадков за период времени, мм. При наведении курсора мыши на число - период времени, за который выпало указанное количество осадков.
R24 - Количество осадков - Количество выпавших осадков за 24 часа, мм.
S - Снежный покров - Высота снежного покрова, см. При наведении курсора мыши на число - состояние снежного покрова и степень покрытия местности в баллах.